Time,TemperatureF,DewpointF,PressureIn,WindDirection,WindDirectionDegrees,WindSpeedMPH,WindSpeedGustMPH,Humidity,HourlyPrecipIn,Conditions,Clouds,dailyrainin,SolarRadiationWatts/m^2,SoftwareType,DateUTC
2015-04-01 00:00:00,43.0,34.2,30.02,North,10,0.0,0.0,71,0.00,CLR,,0.00,0.0,WeatherDisplay:10.37,2015-04-01 04:00:00,
2015-04-01 00:05:00,42.9,34.1,30.02,North,10,0.0,0.0,71,0.00,CLR,,0.00,0.0,WeatherDisplay:10.37,2015-04-01 04:05:00,
2015-04-01 00:10:00,42.9,34.1,30.02,North,10,0.0,0.0,71,0.00,CLR,,0.00,0.0,WeatherDisplay:10.37,2015-04-01 04:10:00,
2015-04-01 00:15:00,42.8,34.0,30.02,North,10,0.0,0.0,71,0.00,CLR,,0.00,0.0,WeatherDisplay:10.37,2015-04-01 04:15:00,
2015-04-01 00:20:00,42.7,33.9,30.02,North,10,0.0,0.0,71,0.00,CLR,,0.00,0.0,WeatherDisplay:10.37,2015-04-01 04:20:00,
2015-04-01 00:25:00,42.5,33.8,30.02,North,10,0.0,0.0,71,0.00,CLR,,0.00,0.0,WeatherDisplay:10.37,2015-04-01 04:25:00,
2015-04-01 00:30:00,42.3,33.6,30.02,North,10,0.0,0.0,71,0.00,CLR,,0.00,0.0,WeatherDisplay:10.37,2015-04-01 04:30:00,
2015-04-01 00:35:00,42.1,33.4,30.02,North,10,0.0,0.0,71,0.00,CLR,,0.00,0.0,WeatherDisplay:10.37,2015-04-01 04:35:00,
2015-04-01 00:40:00,41.9,33.2,30.03,North,10,0.0,0.0,71,0.00,CLR,,0.00,0.0,WeatherDisplay:10.37,2015-04-01 04:40:00,
2015-04-01 00:45:00,41.7,33.0,30.02,North,10,0.0,0.0,71,0.00,CLR,,0.00,0.0,WeatherDisplay:10.37,2015-04-01 04:45:00,
2015-04-01 00:50:00,41.5,33.1,30.02,North,10,0.0,0.0,72,0.00,CLR,,0.00,0.0,WeatherDisplay:10.37,2015-04-01 04:50:00,
2015-04-01 00:55:00,41.3,33.0,30.02,North,10,0.0,0.0,72,0.00,CLR,,0.00,0.0,WeatherDisplay:10.37,2015-04-01 04:55:00,
2015-04-01 01:00:00,41.1,32.8,30.02,North,10,0.0,0.0,72,0.00,CLR,,0.00,0.0,WeatherDisplay:10.37,2015-04-01 05:00:00,
2015-04-01 01:05:00,41.1,33.1,30.02,North,10,0.0,0.0,73,0.00,CLR,,0.00,0.0,WeatherDisplay:10.37,2015-04-01 05:05:00,
2015-04-01 01:10:00,40.9,32.9,30.02,North,10,0.0,0.0,73,0.00,CLR,,0.00,0.0,WeatherDisplay:10.37,2015-04-01 05:10:00,
2015-04-01 01:15:00,40.8,32.8,30.02,North,10,0.0,0.0,73,0.00,CLR,,0.00,0.0,WeatherDisplay:10.37,2015-04-01 05:15:00,
2015-04-01 01:20:00,40.6,32.6,30.02,North,10,0.0,0.0,73,0.00,CLR,,0.00,0.0,WeatherDisplay:10.37,2015-04-01 05:20:00,
2015-04-01 01:25:00,40.4,32.4,30.03,North,10,0.0,0.0,73,0.00,CLR,,0.00,0.0,WeatherDisplay:10.37,2015-04-01 05:25:00,
2015-04-01 01:30:00,40.2,32.2,30.03,North,10,0.0,0.0,73,0.00,CLR,,0.00,0.0,WeatherDisplay:10.37,2015-04-01 05:30:00,
2015-04-01 01:35:00,40.0,32.0,30.03,North,10,0.0,0.0,73,0.00,CLR,,0.00,0.0,WeatherDisplay:10.37,2015-04-01 05:35:00,
2015-04-01 01:40:00,39.8,32.2,30.03,ENE,60,0.0,0.0,74,0.00,CLR,,0.00,0.0,WeatherDisplay:10.37,2015-04-01 05:40:00,
2015-04-01 01:45:00,39.7,32.1,30.03,ENE,60,0.0,0.0,74,0.00,CLR,,0.00,0.0,WeatherDisplay:10.37,2015-04-01 05:45:00,
2015-04-01 01:50:00,39.5,31.9,30.04,ENE,60,0.0,0.0,74,0.00,CLR,,0.00,0.0,WeatherDisplay:10.37,2015-04-01 05:50:00,
2015-04-01 01:55:00,39.3,31.7,30.04,ENE,60,0.0,0.0,74,0.00,CLR,,0.00,0.0,WeatherDisplay:10.37,2015-04-01 05:55:00,
2015-04-01 02:00:00,39.2,31.6,30.04,ENE,78,0.0,0.3,74,0.00,CLR,,0.00,0.0,WeatherDisplay:10.37,2015-04-01 06:00:00,
2015-04-01 02:05:00,39.0,31.4,30.04,ENE,78,0.0,0.0,74,0.00,CLR,,0.00,0.0,WeatherDisplay:10.37,2015-04-01 06:05:00,
2015-04-01 02:10:00,38.8,31.2,30.04,ENE,78,0.0,0.0,74,0.00,CLR,,0.00,0.0,WeatherDisplay:10.37,2015-04-01 06:10:00,
2015-04-01 02:15:00,38.7,31.1,30.04,ENE,78,0.0,0.0,74,0.00,CLR,,0.00,0.0,WeatherDisplay:10.37,2015-04-01 06:15:00,
2015-04-01 02:20:00,38.5,30.9,30.04,ENE,78,0.0,0.0,74,0.00,CLR,,0.00,0.0,WeatherDisplay:10.37,2015-04-01 06:20:00,
2015-04-01 02:25:00,38.3,30.7,30.04,ENE,78,0.0,0.0,74,0.00,CLR,,0.00,0.0,WeatherDisplay:10.37,2015-04-01 06:25:00,
2015-04-01 02:30:00,38.1,30.5,30.04,ENE,78,0.0,0.0,74,0.00,CLR,,0.00,0.0,WeatherDisplay:10.37,2015-04-01 06:30:00,
2015-04-01 02:35:00,37.9,30.4,30.05,ENE,78,0.0,0.0,74,0.00,CLR,,0.00,0.0,WeatherDisplay:10.37,2015-04-01 06:35:00,
2015-04-01 02:40:00,37.7,30.2,30.05,ENE,78,0.0,0.0,74,0.00,CLR,,0.00,0.0,WeatherDisplay:10.37,2015-04-01 06:40:00,
2015-04-01 02:45:00,37.5,30.0,30.05,ENE,78,0.0,0.0,74,0.00,CLR,,0.00,0.0,WeatherDisplay:10.37,2015-04-01 06:45:00,
2015-04-01 02:50:00,37.4,29.9,30.05,ENE,78,0.0,0.0,74,0.00,CLR,,0.00,0.0,WeatherDisplay:10.37,2015-04-01 06:50:00,
2015-04-01 02:55:00,37.1,29.6,30.05,ENE,78,0.0,0.0,74,0.00,CLR,,0.00,0.0,WeatherDisplay:10.37,2015-04-01 06:55:00,
2015-04-01 03:00:00,36.9,29.4,30.05,ENE,78,0.0,0.0,74,0.00,CLR,,0.00,0.0,WeatherDisplay:10.37,2015-04-01 07:00:00,
2015-04-01 03:05:00,36.7,29.5,30.05,ENE,78,0.0,0.0,75,0.00,CLR,,0.00,0.0,WeatherDisplay:10.37,2015-04-01 07:05:00,
2015-04-01 03:10:00,36.5,29.3,30.05,ENE,78,0.0,0.0,75,0.00,CLR,,0.00,0.0,WeatherDisplay:10.37,2015-04-01 07:10:00,
2015-04-01 03:15:00,36.3,29.1,30.05,ENE,78,0.0,0.0,75,0.00,CLR,,0.00,0.0,WeatherDisplay:10.37,2015-04-01 07:15:00,
2015-04-01 03:21:00,36.1,28.9,30.05,ENE,78,0.0,0.0,75,0.00,CLR,,0.00,0.0,WeatherDisplay:10.37,2015-04-01 07:21:00,
2015-04-01 03:26:00,35.9,28.7,30.05,ENE,78,0.0,0.0,75,0.00,CLR,,0.00,0.0,WeatherDisplay:10.37,2015-04-01 07:26:00,
2015-04-01 03:31:00,35.7,28.6,30.04,ENE,78,0.0,0.0,75,0.00,CLR,,0.00,0.0,WeatherDisplay:10.37,2015-04-01 07:31:00,
2015-04-01 03:36:00,35.5,28.4,30.04,ENE,78,0.0,0.0,75,0.00,CLR,,0.00,0.0,WeatherDisplay:10.37,2015-04-01 07:36:00,
2015-04-01 03:41:00,35.2,28.1,30.04,ENE,78,0.0,0.0,75,0.00,CLR,,0.00,0.0,WeatherDisplay:10.37,2015-04-01 07:41:00,
2015-04-01 03:46:00,35.1,28.0,30.04,ENE,78,0.0,0.0,75,0.00,CLR,,0.00,0.0,WeatherDisplay:10.37,2015-04-01 07:46:00,
2015-04-01 03:51:00,34.9,27.8,30.04,ENE,78,0.0,0.0,75,0.00,CLR,,0.00,0.0,WeatherDisplay:10.37,2015-04-01 07:51:00,
2015-04-01 03:56:00,34.7,27.6,30.04,ENE,78,0.0,0.0,75,0.00,CLR,,0.00,0.0,WeatherDisplay:10.37,2015-04-01 07:56:00,
2015-04-01 04:01:00,34.4,27.3,30.04,ENE,78,0.0,0.0,75,0.00,CLR,,0.00,0.0,WeatherDisplay:10.37,2015-04-01 08:01:00,
2015-04-01 04:06:00,34.4,27.3,30.04,ENE,78,0.0,0.0,75,0.00,CLR,,0.00,0.0,WeatherDisplay:10.37,2015-04-01 08:06:00,
2015-04-01 04:11:00,34.4,27.3,30.04,ENE,78,0.0,0.0,75,0.00,CLR,,0.00,0.0,WeatherDisplay:10.37,2015-04-01 08:11:00,
2015-04-01 04:16:00,34.3,27.2,30.04,ENE,78,0.0,0.0,75,0.00,CLR,,0.00,0.0,WeatherDisplay:10.37,2015-04-01 08:16:00,
2015-04-01 04:21:00,34.2,27.1,30.04,ENE,78,0.0,0.0,75,0.00,CLR,,0.00,0.0,WeatherDisplay:10.37,2015-04-01 08:21:00,
2015-04-01 04:26:00,34.1,27.0,30.03,ENE,78,0.0,0.0,75,0.00,CLR,,0.00,0.0,WeatherDisplay:10.37,2015-04-01 08:26:00,
2015-04-01 04:31:00,34.0,26.9,30.03,ENE,78,0.0,0.0,75,0.00,CLR,,0.00,0.0,WeatherDisplay:10.37,2015-04-01 08:31:00,
2015-04-01 04:36:00,34.0,26.9,30.04,ENE,78,0.0,0.0,75,0.00,CLR,,0.00,0.0,WeatherDisplay:10.37,2015-04-01 08:36:00,
2015-04-01 04:41:00,34.0,26.9,30.04,ENE,78,0.0,0.0,75,0.00,CLR,,0.00,0.0,WeatherDisplay:10.37,2015-04-01 08:41:00,
2015-04-01 04:46:00,33.9,26.8,30.04,ENE,78,0.0,0.0,75,0.00,CLR,,0.00,0.0,WeatherDisplay:10.37,2015-04-01 08:46:00,
2015-04-01 04:51:00,33.9,26.8,30.04,ENE,78,0.0,0.0,75,0.00,CLR,,0.00,0.0,WeatherDisplay:10.37,2015-04-01 08:51:00,
2015-04-01 04:56:00,33.8,26.7,30.04,ENE,78,0.0,0.0,75,0.00,CLR,,0.00,0.0,WeatherDisplay:10.37,2015-04-01 08:56:00,
2015-04-01 05:01:00,33.8,26.7,30.04,ENE,78,0.0,0.0,75,0.00,CLR,,0.00,0.0,WeatherDisplay:10.37,2015-04-01 09:01:00,
2015-04-01 05:06:00,33.7,26.6,30.04,ENE,78,0.0,0.0,75,0.00,CLR,,0.00,0.0,WeatherDisplay:10.37,2015-04-01 09:06:00,
2015-04-01 05:11:00,33.6,26.5,30.04,ENE,78,0.0,0.0,75,0.00,CLR,,0.00,0.0,WeatherDisplay:10.37,2015-04-01 09:11:00,
2015-04-01 05:16:00,33.5,26.4,30.05,ENE,78,0.0,0.0,75,0.00,CLR,,0.00,0.0,WeatherDisplay:10.37,2015-04-01 09:16:00,
2015-04-01 05:21:00,33.5,26.4,30.04,ENE,78,0.0,0.0,75,0.00,CLR,,0.00,0.0,WeatherDisplay:10.37,2015-04-01 09:21:00,
2015-04-01 05:26:00,33.4,26.3,30.05,ENE,78,0.0,0.0,75,0.00,CLR,,0.00,0.0,WeatherDisplay:10.37,2015-04-01 09:26:00,
2015-04-01 05:31:00,33.5,26.4,30.05,ENE,78,0.0,0.0,75,0.00,CLR,,0.00,0.0,WeatherDisplay:10.37,2015-04-01 09:31:00,
2015-04-01 05:36:00,33.5,26.4,30.05,ENE,78,1.2,1.2,75,0.00,CLR,,0.00,0.0,WeatherDisplay:10.37,2015-04-01 09:36:00,
2015-04-01 05:41:00,33.8,26.7,30.04,ENE,78,0.0,0.0,75,0.00,CLR,,0.00,0.0,WeatherDisplay:10.37,2015-04-01 09:41:00,
2015-04-01 05:46:00,33.9,26.8,30.05,ENE,78,0.0,0.0,75,0.00,CLR,,0.00,0.0,WeatherDisplay:10.37,2015-04-01 09:46:00,
2015-04-01 05:51:00,33.9,26.8,30.05,ENE,78,0.0,0.0,75,0.00,CLR,,0.00,0.0,WeatherDisplay:10.37,2015-04-01 09:51:00,
2015-04-01 05:56:00,34.0,26.9,30.05,ENE,78,0.0,0.0,75,0.00,CLR,,0.00,0.0,WeatherDisplay:10.37,2015-04-01 09:56:00,
2015-04-01 06:01:00,33.9,26.8,30.05,ENE,78,0.0,0.0,75,0.00,CLR,,0.00,0.0,WeatherDisplay:10.37,2015-04-01 10:01:00,
2015-04-01 06:06:00,33.9,26.8,30.05,ENE,78,0.0,0.0,75,0.00,CLR,,0.00,0.0,WeatherDisplay:10.37,2015-04-01 10:06:00,
2015-04-01 06:11:00,33.8,26.7,30.05,ENE,78,0.0,0.0,75,0.00,CLR,,0.00,0.0,WeatherDisplay:10.37,2015-04-01 10:11:00,
2015-04-01 06:16:00,33.7,26.6,30.05,ENE,78,0.0,0.0,75,0.00,CLR,,0.00,0.0,WeatherDisplay:10.37,2015-04-01 10:16:00,
2015-04-01 06:21:00,33.6,26.5,30.05,ENE,78,0.0,0.0,75,0.00,CLR,,0.00,0.0,WeatherDisplay:10.37,2015-04-01 10:21:00,
2015-04-01 06:26:00,33.5,26.4,30.05,ENE,78,0.0,0.0,75,0.00,CLR,,0.00,0.0,WeatherDisplay:10.37,2015-04-01 10:26:00,
2015-04-01 06:31:00,33.4,26.3,30.06,ENE,78,0.0,0.0,75,0.00,CLR,,0.00,0.0,WeatherDisplay:10.37,2015-04-01 10:31:00,
2015-04-01 06:36:00,33.4,26.3,30.07,ENE,78,0.0,0.0,75,0.00,CLR,,0.00,0.0,WeatherDisplay:10.37,2015-04-01 10:36:00,
2015-04-01 06:41:00,33.4,26.3,30.07,ENE,78,0.0,0.0,75,0.00,CLR,,0.00,0.0,WeatherDisplay:10.37,2015-04-01 10:41:00,
2015-04-01 06:46:00,33.4,26.3,30.07,ENE,78,0.0,0.0,75,0.00,CLR,,0.00,0.0,WeatherDisplay:10.37,2015-04-01 10:46:00,
2015-04-01 06:51:00,33.7,26.6,30.07,ENE,78,2.3,2.3,75,0.00,CLR,,0.00,0.0,WeatherDisplay:10.37,2015-04-01 10:51:00,
2015-04-01 06:56:00,34.1,27.0,30.08,East,79,1.2,0.0,75,0.00,CLR,,0.00,0.0,WeatherDisplay:10.37,2015-04-01 10:56:00,
2015-04-01 07:01:00,34.4,27.3,30.08,East,80,0.0,0.0,75,0.00,CLR,,0.00,0.0,WeatherDisplay:10.37,2015-04-01 11:01:00,
2015-04-01 07:06:00,34.7,27.6,30.08,East,80,0.0,0.0,75,0.00,CLR,,0.00,0.0,WeatherDisplay:10.37,2015-04-01 11:06:00,
2015-04-01 07:11:00,34.8,27.7,30.08,East,80,1.2,0.0,75,0.00,CLR,,0.00,0.0,WeatherDisplay:10.37,2015-04-01 11:11:00,
2015-04-01 07:16:00,34.8,27.7,30.08,East,79,0.0,0.0,75,0.00,CLR,,0.00,0.0,WeatherDisplay:10.37,2015-04-01 11:16:00,
2015-04-01 07:21:00,34.8,27.7,30.08,East,80,0.0,0.0,75,0.00,CLR,,0.00,0.0,WeatherDisplay:10.37,2015-04-01 11:21:00,
2015-04-01 07:26:00,34.7,27.6,30.08,East,80,0.0,0.0,75,0.00,CLR,,0.00,0.0,WeatherDisplay:10.37,2015-04-01 11:26:00,
2015-04-01 07:31:00,34.6,27.5,30.08,East,84,1.2,0.0,75,0.00,CLR,,0.00,7.0,WeatherDisplay:10.37,2015-04-01 11:31:00,
2015-04-01 07:36:00,34.6,27.5,30.09,East,84,0.0,0.0,75,0.00,CLR,,0.00,9.0,WeatherDisplay:10.37,2015-04-01 11:36:00,
2015-04-01 07:41:00,34.6,27.5,30.09,East,84,0.0,0.0,75,0.00,CLR,,0.00,11.0,WeatherDisplay:10.37,2015-04-01 11:41:00,
2015-04-01 07:46:00,34.7,27.6,30.09,East,83,0.0,0.0,75,0.00,CLR,,0.00,14.0,WeatherDisplay:10.37,2015-04-01 11:46:00,
2015-04-01 07:51:00,34.8,27.7,30.09,East,84,0.0,0.0,75,0.00,CLR,,0.00,18.0,WeatherDisplay:10.37,2015-04-01 11:51:00,
2015-04-01 07:56:00,34.8,27.7,30.10,East,84,0.0,0.0,75,0.00,CLR,,0.00,19.0,WeatherDisplay:10.37,2015-04-01 11:56:00,
2015-04-01 08:01:00,34.8,27.7,30.10,East,84,0.0,0.0,75,0.00,CLR,,0.00,21.0,WeatherDisplay:10.37,2015-04-01 12:01:00,
2015-04-01 08:06:00,34.8,27.7,30.10,East,84,0.0,0.0,75,0.00,CLR,,0.00,28.0,WeatherDisplay:10.37,2015-04-01 12:06:00,
2015-04-01 08:11:00,35.1,28.0,30.10,East,84,0.0,0.0,75,0.00,CLR,,0.00,37.0,WeatherDisplay:10.37,2015-04-01 12:11:00,
2015-04-01 08:16:00,35.3,28.2,30.10,East,84,0.0,0.0,75,0.00,CLR,,0.00,32.0,WeatherDisplay:10.37,2015-04-01 12:16:00,
2015-04-01 08:21:00,35.7,28.6,30.11,East,84,1.2,0.0,75,0.00,CLR,,0.00,33.0,WeatherDisplay:10.37,2015-04-01 12:21:00,
2015-04-01 08:26:00,36.2,29.0,30.11,East,83,0.0,0.0,75,0.00,CLR,,0.00,37.0,WeatherDisplay:10.37,2015-04-01 12:26:00,
2015-04-01 08:31:00,36.8,29.6,30.11,East,83,1.0,1.0,75,0.00,CLR,,0.00,44.0,WeatherDisplay:10.37,2015-04-01 12:31:00,
2015-04-01 08:36:00,37.4,30.2,30.11,East,84,0.0,0.0,75,0.00,CLR,,0.00,54.0,WeatherDisplay:10.37,2015-04-01 12:36:00,
2015-04-01 08:41:00,38.0,30.8,30.12,East,84,3.0,3.0,75,0.00,CLR,,0.00,86.0,WeatherDisplay:10.37,2015-04-01 12:41:00,
2015-04-01 08:46:00,38.7,31.5,30.12,East,85,0.0,0.0,75,0.00,CLR,,0.00,54.0,WeatherDisplay:10.37,2015-04-01 12:46:00,
2015-04-01 08:51:00,39.3,32.0,30.12,East,85,0.0,0.1,75,0.00,CLR,,0.00,77.0,WeatherDisplay:10.37,2015-04-01 12:51:00,
2015-04-01 08:56:00,40.1,32.8,30.12,East,85,0.0,0.1,75,0.00,CLR,,0.00,40.0,WeatherDisplay:10.37,2015-04-01 12:56:00,
2015-04-01 09:01:00,40.9,33.9,30.12,SE,126,1.2,1.2,76,0.00,CLR,,0.00,42.0,WeatherDisplay:10.37,2015-04-01 13:01:00,
2015-04-01 09:07:00,41.5,34.5,30.12,ESE,122,1.2,1.2,76,0.00,CLR,,0.00,77.0,WeatherDisplay:10.37,2015-04-01 13:07:00,
2015-04-01 09:12:00,42.2,35.2,30.13,SE,128,1.2,1.4,76,0.00,CLR,,0.00,156.0,WeatherDisplay:10.37,2015-04-01 13:12:00,
2015-04-01 09:17:00,42.9,35.5,30.13,SE,127,2.3,2.3,75,0.00,CLR,,0.00,144.0,WeatherDisplay:10.37,2015-04-01 13:17:00,
2015-04-01 09:22:00,43.3,35.2,30.13,SSE,148,3.5,3.5,73,0.00,CLR,,0.00,171.0,WeatherDisplay:10.37,2015-04-01 13:22:00,
2015-04-01 09:27:00,43.9,35.5,30.13,SE,137,3.5,3.5,72,0.00,CLR,,0.00,144.0,WeatherDisplay:10.37,2015-04-01 13:27:00,
2015-04-01 09:32:00,44.4,35.6,30.14,South,182,3.5,3.5,71,0.00,CLR,,0.00,118.0,WeatherDisplay:10.37,2015-04-01 13:32:00,
2015-04-01 09:37:00,44.8,35.2,30.14,South,186,3.5,3.5,69,0.00,CLR,,0.00,118.0,WeatherDisplay:10.37,2015-04-01 13:37:00,
2015-04-01 09:42:00,45.1,35.2,30.13,ESE,118,4.6,4.6,68,0.00,CLR,,0.00,221.0,WeatherDisplay:10.37,2015-04-01 13:42:00,
2015-04-01 09:47:00,45.6,35.3,30.13,ESE,111,4.6,4.6,67,0.00,CLR,,0.00,357.0,WeatherDisplay:10.37,2015-04-01 13:47:00,
2015-04-01 09:52:00,46.1,35.7,30.13,SSW,207,2.3,2.3,67,0.00,CLR,,0.00,376.0,WeatherDisplay:10.37,2015-04-01 13:52:00,
2015-04-01 09:57:00,46.6,35.8,30.14,ESE,115,3.5,3.5,66,0.00,CLR,,0.00,306.0,WeatherDisplay:10.37,2015-04-01 13:57:00,
2015-04-01 10:02:00,47.4,36.6,30.14,ENE,74,2.3,2.3,66,0.00,CLR,,0.00,258.0,WeatherDisplay:10.37,2015-04-01 14:02:00,
2015-04-01 10:07:00,48.0,36.8,30.15,ESE,110,1.2,1.2,65,0.00,CLR,,0.00,313.0,WeatherDisplay:10.37,2015-04-01 14:07:00,
2015-04-01 10:12:00,48.5,36.5,30.15,SSE,160,1.2,1.2,63,0.00,CLR,,0.00,345.0,WeatherDisplay:10.37,2015-04-01 14:12:00,
2015-04-01 10:17:00,49.0,36.5,30.15,SE,134,2.0,2.0,62,0.00,CLR,,0.00,457.0,WeatherDisplay:10.37,2015-04-01 14:17:00,
2015-04-01 10:22:00,49.5,36.6,30.16,ESE,114,5.8,5.8,61,0.00,CLR,,0.00,548.0,WeatherDisplay:10.37,2015-04-01 14:22:00,
2015-04-01 10:27:00,49.9,37.0,30.16,ESE,106,1.2,0.0,61,0.00,CLR,,0.00,566.0,WeatherDisplay:10.37,2015-04-01 14:27:00,
2015-04-01 10:32:00,50.8,37.4,30.16,ESE,123,1.2,1.2,60,0.00,CLR,,0.00,584.0,WeatherDisplay:10.37,2015-04-01 14:32:00,
2015-04-01 10:37:00,51.7,37.4,30.16,SE,128,1.2,1.2,58,0.00,CLR,,0.00,603.0,WeatherDisplay:10.37,2015-04-01 14:37:00,
2015-04-01 10:42:00,52.1,36.9,30.16,SE,144,3.5,3.5,56,0.00,CLR,,0.00,615.0,WeatherDisplay:10.37,2015-04-01 14:42:00,
2015-04-01 10:47:00,52.4,37.2,30.16,ESE,108,3.5,3.5,56,0.00,CLR,,0.00,633.0,WeatherDisplay:10.37,2015-04-01 14:47:00,
2015-04-01 10:52:00,52.8,37.5,30.16,ESE,109,3.5,3.5,56,0.00,CLR,,0.00,649.0,WeatherDisplay:10.37,2015-04-01 14:52:00,
2015-04-01 10:57:00,53.0,37.3,30.16,ENE,71,3.5,3.5,55,0.00,CLR,,0.00,659.0,WeatherDisplay:10.37,2015-04-01 14:57:00,
2015-04-01 11:02:00,53.4,37.2,30.16,ESE,118,2.3,0.0,54,0.00,CLR,,0.00,675.0,WeatherDisplay:10.37,2015-04-01 15:02:00,
2015-04-01 11:07:00,54.0,37.2,30.15,SSE,155,2.3,2.3,53,0.00,CLR,,0.00,691.0,WeatherDisplay:10.37,2015-04-01 15:07:00,
2015-04-01 11:12:00,54.4,37.1,30.16,East,98,5.8,5.8,52,0.00,CLR,,0.00,703.0,WeatherDisplay:10.37,2015-04-01 15:12:00,
2015-04-01 11:17:00,54.9,37.6,30.15,SE,125,1.2,1.2,52,0.00,CLR,,0.00,717.0,WeatherDisplay:10.37,2015-04-01 15:17:00,
2015-04-01 11:22:00,55.4,38.1,30.15,SE,134,1.2,1.2,52,0.00,CLR,,0.00,728.0,WeatherDisplay:10.37,2015-04-01 15:22:00,
2015-04-01 11:27:00,56.1,37.7,30.16,SSE,160,3.5,3.5,50,0.00,CLR,,0.00,744.0,WeatherDisplay:10.37,2015-04-01 15:27:00,
2015-04-01 11:32:00,56.4,36.9,30.15,SE,128,1.2,1.2,48,0.00,CLR,,0.00,754.0,WeatherDisplay:10.37,2015-04-01 15:32:00,
2015-04-01 11:37:00,56.9,37.9,30.16,East,98,1.2,0.0,49,0.00,CLR,,0.00,761.0,WeatherDisplay:10.37,2015-04-01 15:37:00,
2015-04-01 11:42:00,57.5,39.0,30.16,ESE,111,1.2,1.2,50,0.00,CLR,,0.00,772.0,WeatherDisplay:10.37,2015-04-01 15:42:00,
2015-04-01 11:47:00,57.6,37.5,30.16,ESE,122,1.2,1.2,47,0.00,CLR,,0.00,782.0,WeatherDisplay:10.37,2015-04-01 15:47:00,
2015-04-01 11:52:00,57.5,36.9,30.16,East,96,3.5,3.5,46,0.00,CLR,,0.00,796.0,WeatherDisplay:10.37,2015-04-01 15:52:00,
2015-04-01 11:57:00,57.5,37.4,30.16,East,101,3.5,3.5,47,0.00,CLR,,0.00,802.0,WeatherDisplay:10.37,2015-04-01 15:57:00,
2015-04-01 12:02:00,57.9,37.2,30.16,ENE,71,2.3,2.3,46,0.00,FEW,,0.00,816.0,WeatherDisplay:10.37,2015-04-01 16:02:00,
2015-04-01 12:07:00,58.5,38.3,30.16,ESE,102,2.3,2.3,47,0.00,FEW,,0.00,819.0,WeatherDisplay:10.37,2015-04-01 16:07:00,
2015-04-01 12:12:00,59.0,38.2,30.16,SE,131,3.5,3.5,46,0.00,FEW,,0.00,830.0,WeatherDisplay:10.37,2015-04-01 16:12:00,
2015-04-01 12:17:00,59.0,37.7,30.16,East,98,1.2,1.2,45,0.00,FEW,,0.00,837.0,WeatherDisplay:10.37,2015-04-01 16:17:00,
2015-04-01 12:22:00,59.8,38.4,30.15,West,273,3.5,3.5,45,0.00,FEW,,0.00,842.0,WeatherDisplay:10.37,2015-04-01 16:22:00,
2015-04-01 12:27:00,60.1,38.1,30.15,East,88,1.2,1.2,44,0.00,FEW,,0.00,851.0,WeatherDisplay:10.37,2015-04-01 16:27:00,
2015-04-01 12:32:00,60.4,37.8,30.15,NE,37,4.0,4.0,43,0.00,FEW,,0.00,861.0,WeatherDisplay:10.37,2015-04-01 16:32:00,
2015-04-01 12:37:00,61.0,38.9,30.15,NE,55,3.5,3.5,44,0.00,FEW,,0.00,867.0,WeatherDisplay:10.37,2015-04-01 16:37:00,
2015-04-01 12:42:00,61.3,38.6,30.15,East,92,4.0,4.0,43,0.00,FEW,,0.00,872.0,WeatherDisplay:10.37,2015-04-01 16:42:00,
2015-04-01 12:47:00,60.8,37.5,30.15,East,81,1.2,0.0,42,0.00,FEW,,0.00,874.0,WeatherDisplay:10.37,2015-04-01 16:47:00,
2015-04-01 12:52:00,60.9,38.2,30.15,East,82,3.5,3.5,43,0.00,FEW,,0.00,881.0,WeatherDisplay:10.37,2015-04-01 16:52:00,
2015-04-01 12:57:00,61.5,38.8,30.15,East,96,3.0,3.0,43,0.00,FEW,,0.00,889.0,WeatherDisplay:10.37,2015-04-01 16:57:00,
2015-04-01 13:02:00,62.2,38.8,30.15,East,96,6.0,6.0,42,0.00,CLR,,0.00,893.0,WeatherDisplay:10.37,2015-04-01 17:02:00,
2015-04-01 13:07:00,62.4,37.1,30.14,East,95,3.5,3.5,39,0.00,CLR,,0.00,896.0,WeatherDisplay:10.37,2015-04-01 17:07:00,
2015-04-01 13:12:00,62.6,38.6,30.14,ENE,75,2.3,0.0,41,0.00,CLR,,0.00,898.0,WeatherDisplay:10.37,2015-04-01 17:12:00,
2015-04-01 13:17:00,63.1,37.1,30.14,ESE,103,3.0,3.0,38,0.00,CLR,,0.00,904.0,WeatherDisplay:10.37,2015-04-01 17:17:00,
2015-04-01 13:22:00,63.5,37.4,30.14,ENE,75,3.5,3.5,38,0.00,CLR,,0.00,907.0,WeatherDisplay:10.37,2015-04-01 17:22:00,
2015-04-01 13:27:00,63.2,37.2,30.14,ENE,78,2.3,2.3,38,0.00,CLR,,0.00,905.0,WeatherDisplay:10.37,2015-04-01 17:27:00,
2015-04-01 13:32:00,63.1,38.4,30.14,ESE,115,3.5,3.5,40,0.00,CLR,,0.00,912.0,WeatherDisplay:10.37,2015-04-01 17:32:00,
2015-04-01 13:37:00,63.2,37.2,30.14,SSE,165,1.2,0.0,38,0.00,CLR,,0.00,900.0,WeatherDisplay:10.37,2015-04-01 17:37:00,
2015-04-01 13:42:00,63.5,37.4,30.14,SSE,150,2.3,2.3,38,0.00,CLR,,0.00,905.0,WeatherDisplay:10.37,2015-04-01 17:42:00,
2015-04-01 13:47:00,63.6,36.1,30.13,East,86,3.5,3.5,36,0.00,CLR,,0.00,911.0,WeatherDisplay:10.37,2015-04-01 17:47:00,
2015-04-01 13:52:00,63.5,35.3,30.13,SSE,152,5.8,5.8,35,0.00,CLR,,0.00,911.0,WeatherDisplay:10.37,2015-04-01 17:52:00,
2015-04-01 13:57:00,63.4,36.0,30.13,East,84,2.3,2.3,36,0.00,CLR,,0.00,909.0,WeatherDisplay:10.37,2015-04-01 17:57:00,
2015-04-01 14:02:00,63.5,36.0,30.13,ESE,119,5.8,5.8,36,0.00,CLR,,0.00,909.0,WeatherDisplay:10.37,2015-04-01 18:02:00,
2015-04-01 14:07:00,63.4,34.5,30.12,North,9,1.2,1.2,34,0.00,CLR,,0.00,907.0,WeatherDisplay:10.37,2015-04-01 18:07:00,
2015-04-01 14:12:00,63.6,35.4,30.12,East,80,2.3,2.3,35,0.00,CLR,,0.00,900.0,WeatherDisplay:10.37,2015-04-01 18:12:00,
2015-04-01 14:17:00,63.9,36.4,30.12,SE,144,4.6,4.6,36,0.00,CLR,,0.00,895.0,WeatherDisplay:10.37,2015-04-01 18:17:00,
2015-04-01 14:22:00,64.1,34.4,30.11,ESE,113,3.5,3.5,33,0.00,CLR,,0.00,895.0,WeatherDisplay:10.37,2015-04-01 18:22:00,
2015-04-01 14:27:00,64.4,36.8,30.11,East,85,3.5,3.5,36,0.00,CLR,,0.00,886.0,WeatherDisplay:10.37,2015-04-01 18:27:00,
2015-04-01 14:32:00,64.5,34.7,30.11,ESE,106,4.0,4.0,33,0.00,CLR,,0.00,884.0,WeatherDisplay:10.37,2015-04-01 18:32:00,
2015-04-01 14:37:00,64.3,36.0,30.11,ENE,77,3.5,3.5,35,0.00,CLR,,0.00,879.0,WeatherDisplay:10.37,2015-04-01 18:37:00,
2015-04-01 14:42:00,64.6,34.8,30.11,East,86,2.3,2.3,33,0.00,CLR,,0.00,874.0,WeatherDisplay:10.37,2015-04-01 18:42:00,
2015-04-01 14:47:00,64.9,36.6,30.10,East,92,2.3,2.3,35,0.00,CLR,,0.00,870.0,WeatherDisplay:10.37,2015-04-01 18:47:00,
2015-04-01 14:52:00,65.4,37.7,30.10,East,86,4.0,4.0,36,0.00,CLR,,0.00,865.0,WeatherDisplay:10.37,2015-04-01 18:52:00,
2015-04-01 14:57:00,66.0,35.3,30.10,ESE,113,2.3,2.3,32,0.00,CLR,,0.00,854.0,WeatherDisplay:10.37,2015-04-01 18:57:00,
2015-04-01 15:02:00,66.4,36.4,30.10,East,84,3.5,3.5,33,0.00,FEW,,0.00,844.0,WeatherDisplay:10.37,2015-04-01 19:02:00,
2015-04-01 15:08:00,66.5,35.7,30.10,East,86,4.0,4.0,32,0.00,FEW,,0.00,837.0,WeatherDisplay:10.37,2015-04-01 19:08:00,
2015-04-01 15:13:00,66.0,34.5,30.10,North,355,4.6,4.6,31,0.00,FEW,,0.00,833.0,WeatherDisplay:10.37,2015-04-01 19:13:00,
2015-04-01 15:18:00,65.8,35.9,30.10,East,82,3.5,3.5,33,0.00,FEW,,0.00,826.0,WeatherDisplay:10.37,2015-04-01 19:18:00,
2015-04-01 15:23:00,66.0,33.7,30.10,East,99,2.3,2.3,30,0.00,FEW,,0.00,816.0,WeatherDisplay:10.37,2015-04-01 19:23:00,
2015-04-01 15:28:00,66.1,32.9,30.10,NNE,17,3.5,3.5,29,0.00,FEW,,0.00,807.0,WeatherDisplay:10.37,2015-04-01 19:28:00,
2015-04-01 15:33:00,66.0,34.5,30.09,North,355,2.0,2.0,31,0.00,FEW,,0.00,795.0,WeatherDisplay:10.37,2015-04-01 19:33:00,
2015-04-01 15:38:00,66.4,34.8,30.09,East,87,2.3,2.3,31,0.00,FEW,,0.00,784.0,WeatherDisplay:10.37,2015-04-01 19:38:00,
2015-04-01 15:43:00,66.6,33.3,30.09,SSE,150,3.5,3.5,29,0.00,FEW,,0.00,777.0,WeatherDisplay:10.37,2015-04-01 19:43:00,
2015-04-01 15:48:00,66.7,34.3,30.09,East,81,3.5,3.5,30,0.00,FEW,,0.00,768.0,WeatherDisplay:10.37,2015-04-01 19:48:00,
2015-04-01 15:53:00,66.5,33.2,30.09,SE,127,2.3,2.3,29,0.00,FEW,,0.00,758.0,WeatherDisplay:10.37,2015-04-01 19:53:00,
2015-04-01 15:58:00,66.6,35.0,30.09,East,101,3.5,3.5,31,0.00,FEW,,0.00,744.0,WeatherDisplay:10.37,2015-04-01 19:58:00,
2015-04-01 16:03:00,66.5,33.2,30.08,WNW,290,1.2,1.2,29,0.00,FEW,,0.00,729.0,WeatherDisplay:10.37,2015-04-01 20:03:00,
2015-04-01 16:08:00,66.7,35.1,30.08,SE,142,4.6,4.6,31,0.00,FEW,,0.00,719.0,WeatherDisplay:10.37,2015-04-01 20:08:00,
2015-04-01 16:13:00,66.9,32.7,30.08,SE,128,2.3,2.3,28,0.00,FEW,,0.00,707.0,WeatherDisplay:10.37,2015-04-01 20:13:00,
2015-04-01 16:18:00,67.3,33.9,30.08,South,169,1.2,1.2,29,0.00,FEW,,0.00,696.0,WeatherDisplay:10.37,2015-04-01 20:18:00,
2015-04-01 16:23:00,67.9,34.4,30.08,East,95,3.5,3.5,29,0.00,FEW,,0.00,684.0,WeatherDisplay:10.37,2015-04-01 20:23:00,
2015-04-01 16:28:00,67.7,34.3,30.08,ESE,109,5.8,5.8,29,0.00,FEW,,0.00,668.0,WeatherDisplay:10.37,2015-04-01 20:28:00,
2015-04-01 16:33:00,67.1,32.9,30.08,ESE,115,2.3,2.3,28,0.00,FEW,,0.00,652.0,WeatherDisplay:10.37,2015-04-01 20:33:00,
2015-04-01 16:38:00,67.3,35.6,30.08,ESE,115,3.5,3.5,31,0.00,FEW,,0.00,633.0,WeatherDisplay:10.37,2015-04-01 20:38:00,
2015-04-01 16:43:00,67.4,34.9,30.07,East,90,2.3,2.3,30,0.00,FEW,,0.00,601.0,WeatherDisplay:10.37,2015-04-01 20:43:00,
2015-04-01 16:48:00,67.6,34.2,30.07,ESE,123,3.5,3.5,29,0.00,FEW,,0.00,543.0,WeatherDisplay:10.37,2015-04-01 20:48:00,
2015-04-01 16:53:00,67.4,34.0,30.07,East,80,2.3,2.3,29,0.00,FEW,,0.00,471.0,WeatherDisplay:10.37,2015-04-01 20:53:00,
2015-04-01 16:58:00,67.4,34.0,30.07,NE,51,1.2,0.0,29,0.00,FEW,,0.00,520.0,WeatherDisplay:10.37,2015-04-01 20:58:00,
2015-04-01 17:03:00,67.3,32.1,30.07,East,86,3.5,3.5,27,0.00,FEW,,0.00,346.0,WeatherDisplay:10.37,2015-04-01 21:03:00,
2015-04-01 17:08:00,67.0,31.9,30.07,ESE,113,1.2,0.0,27,0.00,FEW,,0.00,487.0,WeatherDisplay:10.37,2015-04-01 21:08:00,
2015-04-01 17:13:00,67.0,32.8,30.07,ESE,119,3.0,3.0,28,0.00,FEW,,0.00,490.0,WeatherDisplay:10.37,2015-04-01 21:13:00,
2015-04-01 17:18:00,67.0,32.8,30.06,East,90,5.8,5.8,28,0.00,FEW,,0.00,461.0,WeatherDisplay:10.37,2015-04-01 21:18:00,
2015-04-01 17:23:00,67.0,31.9,30.07,ESE,117,4.6,4.6,27,0.00,FEW,,0.00,343.0,WeatherDisplay:10.37,2015-04-01 21:23:00,
2015-04-01 17:28:00,66.6,32.5,30.07,ESE,109,1.2,1.2,28,0.00,FEW,,0.00,446.0,WeatherDisplay:10.37,2015-04-01 21:28:00,
2015-04-01 17:33:00,66.7,33.4,30.07,ENE,72,4.6,4.6,29,0.00,FEW,,0.00,380.0,WeatherDisplay:10.37,2015-04-01 21:33:00,
2015-04-01 17:38:00,66.6,31.5,30.07,East,92,3.5,3.5,27,0.00,FEW,,0.00,338.0,WeatherDisplay:10.37,2015-04-01 21:38:00,
2015-04-01 17:43:00,66.6,31.5,30.07,ESE,115,2.0,2.0,27,0.00,FEW,,0.00,243.0,WeatherDisplay:10.37,2015-04-01 21:43:00,
2015-04-01 17:48:00,66.8,32.6,30.07,ESE,121,1.2,1.2,28,0.00,FEW,,0.00,169.0,WeatherDisplay:10.37,2015-04-01 21:48:00,
2015-04-01 17:53:00,66.7,30.7,30.07,ESE,118,1.2,1.2,26,0.00,FEW,,0.00,167.0,WeatherDisplay:10.37,2015-04-01 21:53:00,
2015-04-01 17:58:00,66.5,31.5,30.07,East,81,4.6,4.6,27,0.00,FEW,,0.00,181.0,WeatherDisplay:10.37,2015-04-01 21:58:00,
2015-04-01 18:03:00,66.1,32.0,30.07,East,80,2.3,2.3,28,0.00,SCT,,0.00,114.0,WeatherDisplay:10.37,2015-04-01 22:03:00,
2015-04-01 18:08:00,65.9,31.8,30.06,East,100,3.5,3.5,28,0.00,SCT,,0.00,84.0,WeatherDisplay:10.37,2015-04-01 22:08:00,
2015-04-01 18:13:00,65.7,31.7,30.07,ENE,78,5.8,5.8,28,0.00,SCT,,0.00,90.0,WeatherDisplay:10.37,2015-04-01 22:13:00,
2015-04-01 18:18:00,65.6,30.7,30.07,ESE,111,3.5,3.5,27,0.00,SCT,,0.00,88.0,WeatherDisplay:10.37,2015-04-01 22:18:00,
2015-04-01 18:23:00,65.4,31.4,30.07,SE,128,1.2,1.2,28,0.00,SCT,,0.00,95.0,WeatherDisplay:10.37,2015-04-01 22:23:00,
2015-04-01 18:28:00,65.4,32.3,30.06,ESE,114,2.0,2.0,29,0.00,SCT,,0.00,76.0,WeatherDisplay:10.37,2015-04-01 22:28:00,
2015-04-01 18:33:00,65.2,31.2,30.07,East,99,2.3,2.3,28,0.00,SCT,,0.00,63.0,WeatherDisplay:10.37,2015-04-01 22:33:00,
2015-04-01 18:38:00,65.1,31.2,30.07,ESE,111,3.5,3.5,28,0.00,SCT,,0.00,63.0,WeatherDisplay:10.37,2015-04-01 22:38:00,
2015-04-01 18:43:00,65.0,31.1,30.07,SE,138,3.5,3.5,28,0.00,SCT,,0.00,76.0,WeatherDisplay:10.37,2015-04-01 22:43:00,
2015-04-01 18:48:00,64.9,31.0,30.07,ESE,115,1.2,1.2,28,0.00,SCT,,0.00,69.0,WeatherDisplay:10.37,2015-04-01 22:48:00,
2015-04-01 18:53:00,64.8,30.0,30.07,SSW,204,3.5,3.5,27,0.00,SCT,,0.00,54.0,WeatherDisplay:10.37,2015-04-01 22:53:00,
2015-04-01 18:58:00,64.7,30.8,30.07,East,88,3.5,3.5,28,0.00,SCT,,0.00,47.0,WeatherDisplay:10.37,2015-04-01 22:58:00,
2015-04-01 19:03:00,64.5,31.5,30.07,ESE,109,3.5,3.5,29,0.00,BKN,,0.00,37.0,WeatherDisplay:10.37,2015-04-01 23:03:00,
2015-04-01 19:08:00,64.4,30.6,30.07,SE,126,3.5,3.5,28,0.00,BKN,,0.00,35.0,WeatherDisplay:10.37,2015-04-01 23:08:00,
2015-04-01 19:13:00,64.2,31.3,30.07,East,89,1.2,1.2,29,0.00,BKN,,0.00,28.0,WeatherDisplay:10.37,2015-04-01 23:13:00,
2015-04-01 19:18:00,64.0,30.2,30.06,East,96,3.5,3.5,28,0.00,BKN,,0.00,23.0,WeatherDisplay:10.37,2015-04-01 23:18:00,
2015-04-01 19:23:00,63.7,30.0,30.07,ESE,119,4.0,4.0,28,0.00,BKN,,0.00,18.0,WeatherDisplay:10.37,2015-04-01 23:23:00,
2015-04-01 19:28:00,63.5,29.8,30.06,East,88,4.6,4.6,28,0.00,BKN,,0.00,16.0,WeatherDisplay:10.37,2015-04-01 23:28:00,
2015-04-01 19:33:00,63.2,29.5,30.06,East,101,1.2,0.0,28,0.00,BKN,,0.00,12.0,WeatherDisplay:10.37,2015-04-01 23:33:00,
2015-04-01 19:38:00,62.9,29.3,30.06,SE,124,3.0,3.0,28,0.00,BKN,,0.00,11.0,WeatherDisplay:10.37,2015-04-01 23:38:00,
2015-04-01 19:43:00,62.7,30.0,30.06,ENE,76,1.2,1.2,29,0.00,BKN,,0.00,9.0,WeatherDisplay:10.37,2015-04-01 23:43:00,
2015-04-01 19:48:00,62.5,29.8,30.05,ESE,114,5.8,5.8,29,0.00,BKN,,0.00,7.0,WeatherDisplay:10.37,2015-04-01 23:48:00,
2015-04-01 19:53:00,62.2,30.4,30.05,SE,127,2.3,2.3,30,0.00,BKN,,0.00,0.0,WeatherDisplay:10.37,2015-04-01 23:53:00,
2015-04-01 19:58:00,62.0,30.2,30.06,ESE,102,1.2,0.0,30,0.00,BKN,,0.00,0.0,WeatherDisplay:10.37,2015-04-01 23:58:00,
2015-04-01 20:03:00,61.7,29.9,30.06,ENE,78,2.3,2.3,30,0.00,BKN,,0.00,0.0,WeatherDisplay:10.37,2015-04-02 00:03:00,
2015-04-01 20:08:00,61.5,29.7,30.06,East,101,3.5,3.5,30,0.00,BKN,,0.00,0.0,WeatherDisplay:10.37,2015-04-02 00:08:00,
2015-04-01 20:13:00,61.3,30.4,30.06,East,98,0.0,0.0,31,0.00,BKN,,0.00,0.0,WeatherDisplay:10.37,2015-04-02 00:13:00,
2015-04-01 20:18:00,61.0,30.9,30.06,East,98,0.0,0.0,32,0.00,BKN,,0.00,0.0,WeatherDisplay:10.37,2015-04-02 00:18:00,
2015-04-01 20:23:00,60.5,30.5,30.06,East,98,0.0,0.0,32,0.00,BKN,,0.00,0.0,WeatherDisplay:10.37,2015-04-02 00:23:00,
2015-04-01 20:28:00,60.0,30.0,30.06,East,98,0.0,0.0,32,0.00,BKN,,0.00,0.0,WeatherDisplay:10.37,2015-04-02 00:28:00,
2015-04-01 20:33:00,59.5,31.1,30.06,East,98,0.0,0.0,34,0.00,BKN,,0.00,0.0,WeatherDisplay:10.37,2015-04-02 00:33:00,
2015-04-01 20:39:00,59.0,32.1,30.07,East,98,0.0,0.0,36,0.00,BKN,,0.00,0.0,WeatherDisplay:10.37,2015-04-02 00:39:00,
2015-04-01 20:44:00,58.6,31.7,30.07,East,98,0.0,0.0,36,0.00,BKN,,0.00,0.0,WeatherDisplay:10.37,2015-04-02 00:44:00,